| time (UTC) | temp F | wind direction | speed MPH | gust MPH | rain 1hr in | rain 24hr in | rain mn in | humidity % | barometer mb |
| 20260510163013 | 64 | 262 | 3.0 | 9.0 | 0.00 | 0.18 | 0.00 | 66 | 1011.9 |
| 20260510161515 | 64 | 56 | 1.0 | 6.0 | 0.00 | 0.18 | 0.00 | 66 | 1011.7 |
| 20260510160015 | 64 | 284 | 3.0 | 6.0 | 0.00 | 0.19 | 0.00 | 65 | 1011.8 |
| 20260510154517 | 62 | 238 | 1.0 | 6.0 | 0.00 | 0.20 | 0.00 | 70 | 1011.7 |
| 20260510153014 | 62 | 282 | 1.0 | 4.0 | 0.00 | 0.21 | 0.00 | 70 | 1011.8 |
| 20260510150017 | 60 | 139 | 1.0 | 3.0 | 0.00 | 0.22 | 0.00 | 81 | 1011.9 |
| 20260510144528 | 59 | 23 | 0.0 | 2.0 | 0.00 | 0.22 | 0.00 | 83 | 1011.8 |
| 20260510143016 | 58 | 141 | 0.0 | 3.0 | 0.00 | 0.23 | 0.00 | 82 | 1011.7 |
| 20260510140012 | 56 | 132 | 1.0 | 4.0 | 0.00 | 0.24 | 0.00 | 90 | 1011.9 |
| 20260510134515 | 54 | 129 | 1.0 | 3.0 | 0.00 | 0.24 | 0.00 | 92 | 1011.9 |
| 20260510133019 | 52 | 127 | 1.0 | 4.0 | 0.00 | 0.25 | 0.00 | 94 | 1012.0 |
| 20260510131520 | 51 | 267 | 1.0 | 2.0 | 0.00 | 0.25 | 0.00 | 96 | 1012.2 |
| 20260510124515 | 50 | 264 | 0.0 | 1.0 | 0.00 | 0.26 | 0.00 | 96 | 1012.0 |
| 20260510123017 | 49 | 259 | 0.0 | 1.0 | 0.00 | 0.27 | 0.00 | 96 | 1011.9 |
| 20260510121518 | 49 | 211 | 0.0 | 1.0 | 0.00 | 0.27 | 0.00 | 96 | 1011.9 |
| 20260510120022 | 49 | 269 | 0.0 | 1.0 | 0.00 | 0.28 | 0.00 | 96 | 1011.9 |
| 20260510114512 | 49 | 262 | 0.0 | 0.0 | 0.00 | 0.28 | 0.00 | 96 | 1011.8 |
| 20260510113020 | 48 | 262 | 0.0 | 1.0 | 0.00 | 0.28 | 0.00 | 96 | 1011.8 |
| 20260510111520 | 48 | 262 | 0.0 | 1.0 | 0.00 | 0.28 | 0.00 | 96 | 1011.8 |
| 20260510110033 | 48 | 262 | 0.0 | 1.0 | 0.00 | 0.29 | 0.00 | 96 | 1011.6 |
| 20260510104522 | 48 | 229 | 0.0 | 1.0 | 0.00 | 0.30 | 0.00 | 96 | 1011.4 |
| 20260510103023 | 48 | 198 | 0.0 | 1.0 | 0.00 | 0.31 | 0.00 | 96 | 1011.3 |
| 20260510101518 | 48 | 233 | 0.0 | 1.0 | 0.00 | 0.33 | 0.00 | 96 | 1011.0 |
| 20260510094506 | 47 | 199 | 0.0 | 1.0 | 0.00 | 0.38 | 0.00 | 96 | 1010.4 |
| 20260510093010 | 47 | 271 | 0.0 | 1.0 | 0.00 | 0.39 | 0.00 | 96 | 1010.1 |
| 20260510091512 | 47 | 272 | 0.0 | 1.0 | 0.00 | 0.40 | 0.00 | 96 | 1010.2 |
| 20260510090020 | 47 | 193 | 0.0 | 0.0 | 0.00 | 0.42 | 0.00 | 96 | 1010.3 |
| 20260510084523 | 47 | 193 | 0.0 | 1.0 | 0.00 | 0.42 | 0.00 | 96 | 1010.2 |
| 20260510083007 | 47 | 131 | 0.0 | 0.0 | 0.00 | 0.42 | 0.00 | 96 | 1010.7 |
| 20260510081516 | 47 | 131 | 0.0 | 1.0 | 0.00 | 0.42 | 0.00 | 96 | 1010.6 |
| 20260510080014 | 47 | 131 | 0.0 | 1.0 | 0.00 | 0.42 | 0.00 | 96 | 1010.6 |
| 20260510074521 | 47 | 131 | 0.0 | 1.0 | 0.00 | 0.42 | 0.00 | 96 | 1010.8 |
| 20260510073029 | 47 | 143 | 0.0 | 1.0 | 0.00 | 0.42 | 0.00 | 96 | 1010.8 |
| 20260510071505 | 48 | 129 | 0.0 | 1.0 | 0.00 | 0.42 | 0.00 | 96 | 1010.6 |
| 20260510070022 | 48 | 259 | 0.0 | 1.0 | 0.00 | 0.42 | 0.00 | 96 | 1010.5 |
| 20260510064523 | 47 | 144 | 0.0 | 0.0 | 0.00 | 0.42 | 0.00 | 96 | 1010.3 |
| 20260510063021 | 47 | 158 | 0.0 | 1.0 | 0.00 | 0.42 | 0.00 | 96 | 1010.3 |
| 20260510061526 | 48 | 215 | 1.0 | 3.0 | 0.00 | 0.42 | 0.00 | 96 | 1010.3 |
| 20260510060009 | 48 | 283 | 0.0 | 1.0 | 0.00 | 0.42 | 0.00 | 96 | 1010.4 |
| 20260510054522 | 48 | 124 | 0.0 | 1.0 | 0.00 | 0.42 | 0.00 | 96 | 1010.3 |
| 20260510053017 | 48 | 164 | 0.0 | 0.0 | 0.00 | 0.42 | 0.00 | 96 | 1010.6 |
| 20260510051529 | 48 | 231 | 0.0 | 0.0 | 0.00 | 0.42 | 0.00 | 96 | 1010.6 |
| 20260510050026 | 48 | 231 | 0.0 | 1.0 | 0.00 | 0.42 | 0.00 | 96 | 1010.5 |
| 20260510044519 | 48 | 213 | 0.0 | 2.0 | 0.00 | 0.42 | 0.00 | 96 | 1010.7 |
| 20260510043016 | 48 | 266 | 0.0 | 0.0 | 0.00 | 0.42 | 0.00 | 96 | 1010.6 |
| 20260510041520 | 49 | 239 | 0.0 | 1.0 | 0.00 | 0.42 | 0.00 | 96 | 1010.5 |
| 20260510040024 | 48 | 253 | 0.0 | 1.0 | 0.00 | 0.42 | 0.00 | 96 | 1010.6 |
| 20260510034527 | 48 | 214 | 0.0 | 1.0 | 0.00 | 0.42 | 0.42 | 96 | 1010.4 |
| 20260510033016 | 48 | 262 | 0.0 | 1.0 | 0.00 | 0.42 | 0.42 | 96 | 1010.6 |
| 20260510031518 | 48 | 137 | 0.0 | 1.0 | 0.00 | 0.42 | 0.42 | 96 | 1010.6 |
| 20260510024526 | 48 | 142 | 0.0 | 2.0 | 0.00 | 0.42 | 0.42 | 95 | 1010.6 |
| 20260510023026 | 48 | 217 | 0.0 | 1.0 | 0.00 | 0.42 | 0.42 | 95 | 1010.6 |
| 20260510013028 | 48 | 246 | 0.0 | 0.0 | 0.00 | 0.42 | 0.42 | 95 | 1011.1 |
| 20260510011535 | 48 | 276 | 1.0 | 3.0 | 0.00 | 0.42 | 0.42 | 95 | 1011.0 |
| 20260510003004 | 48 | 160 | 0.0 | 1.0 | 0.00 | 0.42 | 0.42 | 95 | 1010.2 |
| 20260510000012 | 48 | 226 | 0.0 | 2.0 | 0.00 | 0.42 | 0.42 | 94 | 1009.9 |
| 20260509233004 | 48 | 209 | 0.0 | 1.0 | 0.00 | 0.42 | 0.42 | 94 | 1009.8 |
| 20260509231505 | 48 | 191 | 0.0 | 1.0 | 0.00 | 0.42 | 0.42 | 94 | 1010.1 |
| 20260509230008 | 48 | 265 | 0.0 | 2.0 | 0.00 | 0.42 | 0.42 | 94 | 1010.0 |
| 20260509221531 | 49 | 207 | 0.0 | 1.0 | 0.00 | 0.42 | 0.42 | 94 | 1009.8 |
| 20260509211520 | 48 | 276 | 0.0 | 5.0 | 0.05 | 0.42 | 0.42 | 94 | 1010.2 |
| 20260509210019 | 48 | 275 | 0.0 | 1.0 | 0.06 | 0.42 | 0.42 | 94 | 1010.2 |
| 20260509203011 | 47 | 257 | 0.0 | 1.0 | 0.04 | 0.38 | 0.38 | 94 | 1010.9 |
| 20260509201518 | 47 | 234 | 0.0 | 1.0 | 0.04 | 0.37 | 0.37 | 93 | 1011.0 |
| 20260509200019 | 47 | 215 | 0.0 | 2.0 | 0.04 | 0.36 | 0.36 | 94 | 1010.9 |
| 20260509194524 | 47 | 120 | 0.0 | 2.0 | 0.04 | 0.35 | 0.35 | 93 | 1010.9 |
| 20260509193010 | 47 | 181 | 0.0 | 1.0 | 0.04 | 0.34 | 0.34 | 93 | 1011.0 |
| 20260509191516 | 46 | 216 | 0.0 | 1.0 | 0.04 | 0.33 | 0.33 | 93 | 1011.0 |
| 20260509190032 | 46 | 185 | 0.0 | 0.0 | 0.03 | 0.32 | 0.32 | 93 | 1011.1 |
| 20260509184529 | 45 | 185 | 0.0 | 0.0 | 0.03 | 0.31 | 0.31 | 93 | 1011.2 |
| 20260509183034 | 45 | 148 | 0.0 | 0.0 | 0.03 | 0.30 | 0.30 | 93 | 1011.2 |
| 20260509181512 | 45 | 148 | 0.0 | 0.0 | 0.02 | 0.29 | 0.29 | 92 | 1011.4 |
| 20260509180016 | 45 | 148 | 0.0 | 0.0 | 0.03 | 0.29 | 0.29 | 92 | 1011.4 |
| 20260509174524 | 45 | 148 | 0.0 | 0.0 | 0.03 | 0.28 | 0.28 | 92 | 1011.5 |
| 20260509173024 | 45 | 148 | 0.0 | 0.0 | 0.03 | 0.27 | 0.27 | 92 | 1011.7 |
| 20260509171533 | 44 | 148 | 0.0 | 0.0 | 0.03 | 0.27 | 0.27 | 92 | 1011.8 |
| 20260509170026 | 44 | 148 | 0.0 | 0.0 | 0.03 | 0.26 | 0.26 | 92 | 1012.0 |
| 20260509164515 | 44 | 205 | 0.0 | 1.0 | 0.03 | 0.25 | 0.25 | 92 | 1012.2 |